Погода в Шипунове

Россия / Омская область     56°15′12″N   71°32′22″E
темп.,
°C
ветер,
м/с
пор.,
м/с
влажн.,
%
обл.,
%
осадки,
мм/ч
давл.,
гПа
погр.,
м
22 апреля, чт
чт2200:00−1в37735 0.0 1037205
03:00−2вюв26740 0.0 1039196
06:00−3вюв35761 0.0 1041181
09:000юв45530 0.0 1043641
12:00+3юв34410 0.0 10441013
15:00+5ююв45375 0.0 10431157
18:00+6ююв46365 0.0 10431220
21:00+2ююв48560 0.0 1043136
23 апреля, пт
пт2300:000ююв411631 0.0 1043195
03:000ююв512635 0.0 1043233
06:00−1ююв5136697 0.0 1043313
09:00+4ю7115070 0.0 1043606
12:00+7ю78395 0.0 10421051
15:00+9ю6833100 0.0 10411430
18:00+8ю5740100 0.0 10401181
21:00+5ююв385399 0.0 1039167
24 апреля, сб
сб2400:00+3ююв5125899 0.0 1038256
03:00+2ююв4116488 0.0 1037249
06:00+1ююв4116884 0.0 1036233
09:00+5ю61053100 0.0 1035413
12:00+9ю6839100 0.0 10331096
15:00+10ю6735100 0.0 10311447
18:00+9ю5736100 0.0 10301177
21:00+6ююв4850100 0.0 1029159
25 апреля, вс
вс2500:00+5ююв4956100 0.0 1028202
03:00+4юв4960100 0.0 1027208
06:00+3юв41065100 0.0 1026201
09:00+6юв51159100 0.0 1025353
12:00+9юв71040100 0.0 1024751
15:00+11юв71036100 0.0 10231311
18:00+11юв61042100 0.0 10221186
21:00+8вюв6145070 0.0 1021393
26 апреля, пн
пн2600:00+6юв6155598 0.0 1020350
03:00+4юв5126316 0.0 1019254
06:00+3юв4107162 0.0 1018183
09:00+8ю587081 0.0 1016330
12:00+14зюз810503 0.5 10151696
15:00+14з9114099 0.1 10162209
18:00+14зсз7113772 0.1 10162872
21:00+9з345172 0.0 101853